Location: Parc des �les de St-Timoth�e
(45.2924°N, 74.0481°W)
Time: 19:08:11
(UTC-04:00)

ISS - All Passes

Search period start: 02 July 2015 00:00
Search period end: 12 July 2015 00:00
Orbit: 398 x 403 km, 51.6° (Epoch: 02 July)

Date Brightness Start Highest point End Pass type
(mag) Time Alt. Az. Time Alt. Az. Time Alt. Az.
02 Jul - 09:36:14 10° SW 09:39:20 46° SE 09:42:29 10° ENE daylight
02 Jul - 11:12:44 10° W 11:15:49 37° NNW 11:18:53 10° NE daylight
02 Jul - 12:49:58 10° WNW 12:52:46 25° N 12:55:33 10° ENE daylight
02 Jul - 14:26:28 10° NW 14:29:38 49° NNE 14:32:49 10° E daylight
02 Jul - 16:03:04 10° WNW 16:05:56 29° SW 16:08:46 10° SSE daylight
03 Jul - 08:43:15 10° SSW 08:45:59 25° SE 08:48:45 10° E daylight
03 Jul - 10:19:02 10° WSW 10:22:13 54° NNW 10:25:26 10° NE daylight
03 Jul - 11:56:17 10° WNW 11:59:05 26° N 12:01:53 10° NE daylight
03 Jul - 13:33:01 10° NW 13:36:03 35° NNE 13:39:05 10° E daylight
03 Jul - 15:09:23 10° WNW 15:12:33 52° SW 15:15:43 10° SE daylight
04 Jul - 07:50:53 10° SSE 07:52:41 14° SE 07:54:33 10° E daylight
04 Jul - 09:25:26 10° WSW 09:28:41 87° NNW 09:31:57 10° ENE daylight
04 Jul - 11:02:30 10° WNW 11:05:23 29° N 11:08:17 10° NE daylight
04 Jul - 12:39:30 10° NW 12:42:23 29° N 12:45:17 10° ENE daylight
04 Jul - 14:15:50 10° WNW 14:19:05 88° NNE 14:22:20 10° ESE daylight
04 Jul - 15:53:15 10° W 15:55:06 14° SW 15:56:53 10° SSW daylight
05 Jul - 08:32:03 10° SW 08:35:13 52° SE 08:38:24 10° ENE daylight
05 Jul - 10:08:41 10° W 10:11:43 35° NNW 10:14:46 10° NE daylight
05 Jul - 11:45:53 10° NW 11:48:41 26° N 11:51:29 10° ENE daylight
05 Jul - 13:22:20 10° NW 13:25:33 54° NNE 13:28:44 10° ESE daylight
05 Jul - 14:59:01 10° W 15:01:47 25° SW 15:04:30 10° SSE daylight
06 Jul - 07:38:57 10° SSW 07:41:48 29° SE 07:44:41 10° ENE daylight
06 Jul - 09:14:55 10° W 09:18:05 49° NNW 09:21:16 10° NE daylight
06 Jul - 10:52:11 10° WNW 10:54:57 25° N 10:57:45 10° ENE daylight
06 Jul - 12:28:51 10° NW 12:31:55 37° NNE 12:34:59 10° E daylight
06 Jul - 14:05:15 10° WNW 14:08:22 46° SW 14:11:29 10° SE daylight
07 Jul - 06:46:22 10° S 06:48:26 16° SE 06:50:35 10° E daylight
07 Jul - 08:21:15 10° WSW 08:24:30 79° NNW 08:27:46 10° ENE daylight
07 Jul - 09:58:22 10° WNW 10:01:14 28° N 10:04:06 10° NE daylight
07 Jul - 11:35:19 10° NW 11:38:14 30° NNE 11:41:09 10° ENE daylight
07 Jul - 13:11:38 10° WNW 13:14:54 83° SSW 13:18:08 10° ESE daylight
07 Jul - 14:49:22 10° WSW 14:50:51 12° SW 14:52:15 10° SSW daylight
08 Jul - 07:27:46 10° SW 07:30:58 60° SSE 07:34:11 10° ENE daylight
08 Jul - 09:04:31 10° W 09:07:32 33° NNW 09:10:32 10° NE daylight
08 Jul - 10:41:41 10° NW 10:44:30 26° N 10:47:19 10° ENE daylight
08 Jul - 12:18:05 10° WNW 12:21:19 59° NNE 12:24:32 10° ESE daylight
08 Jul - 13:54:53 10° W 13:57:31 22° SW 14:00:05 10° S daylight
09 Jul - 06:34:33 10° SSW 06:37:31 32° SE 06:40:29 10° ENE daylight
09 Jul - 08:10:41 10° W 08:13:50 45° NNW 08:16:59 10° NE daylight
09 Jul - 09:47:57 10° WNW 09:50:44 25° N 09:53:31 10° ENE daylight
09 Jul - 11:24:35 10° NW 11:27:40 40° NNE 11:30:45 10° E daylight
09 Jul - 13:01:00 10° WNW 13:04:05 40° SW 13:07:08 10° SE daylight
10 Jul - 05:41:48 10° S 05:44:05 18° SE 05:46:27 10° E daylight
10 Jul - 07:16:57 10° WSW 07:20:12 71° NNW 07:23:27 10° ENE daylight
10 Jul - 08:54:07 10° WNW 08:56:58 27° N 08:59:49 10° NE daylight
10 Jul - 10:31:01 10° NW 10:33:57 31° NNE 10:36:54 10° ENE daylight
10 Jul - 12:07:20 10° WNW 12:10:35 74° SSW 12:13:48 10° SE daylight
10 Jul - 13:45:32 10° WSW 13:46:29 11° SW 13:47:19 10° SSW daylight
11 Jul - 06:23:23 10° SW 06:26:37 68° SSE 06:29:52 10° ENE daylight
11 Jul - 08:00:14 10° W 08:03:12 32° NNW 08:06:11 10° NE daylight
11 Jul - 09:37:21 10° NW 09:40:11 27° N 09:43:01 10° ENE daylight
11 Jul - 11:13:44 10° WNW 11:16:59 66° NNE 11:20:12 10° ESE daylight
11 Jul - 12:50:39 10° W 12:53:07 20° SW 12:55:32 10° S daylight
